CAPE
0 0 0 0 0 0 0 0 0 0 0 0 0 0 0 0 0 0 0 0 0 0 0 0 0 0 0 0 0 0 0 0 0 0 0 0 0 0 0 0 0 0 0 0 0
0 0 0 0 0 0 0 0 0 0 0 0 0 0 0 0 0 0 0 0 0 0 0 0 0 0 0 0 0 0 0 0 0 0 0 0 0 0 0 0 0 0 0 0 0
0 0 0 0 0 0 0 0 0 0 0 0 0 0 0 0 0 0 0 0 0 0 0 0 0 0 0 0 0 0 0 0 0 0 0 0 0 0 0 0 0 0 0 0 0
0 0 0 0 0 0 0 0 0 0 0 0 0 0 0 0 0 0 0 0 0 0 0 0 0 0 0 0 0 0 0 0 0 0 0 0 0 0 0 0 0 0 0 0 0
0 0 0 0 0 0 0 0 0 0 0 0 0 0 0 0 0 0 0 0 0 0 0 0 0 0 0 0 0 0 0 0 0 0 0 0 0 0 0 0 0 0 0 0 0
0 0 0 0 0 0 0 0 0 0 0 0 0 0 0 0 0 0 0 0 0 0 0 0 0 0 0 0 0 0 0 0 0 0 0 0 0 0 0 0 0 0 0 0 0
0 0 0 0 0 0 0 0 0 0 0 0 0 0 0 0 0 0 0 0 0 0 0 0 0 0 0 0 0 0 0 0 0 0 0 0 0 0 0 0 0 0 0 0 0
0 0 0 0 0 0 0 0 0 0 0 0 0 0 0 0 0 0 0 0 0 0 0 0 0 0 0 0 0 0 0 0 0 0 0 0 0 0 0 0 0 0 0 0 0
0 0 0 0 0 0 0 0 0 0 0 0 0 0 0 0 0 0 0 0 0 0 0 0 0 0 0 0 0 0 0 0 0 0 0 0 0 0 0 0 0 0 0 0 0
0 0 0 0 0 0 0 0 0 0 0 0 0 0 0 0 0 0 0 0 0 0 0 0 0 0 0 0 0 0 0 0 0 0 0 0 0 0 0 0 0 0 0 0 0
0 0 0 0 0 0 0 0 0 0 0 0 0 0 0 0 0 0 0 0 0 0 0 0 0 0 0 0 0 0 0 0 0 0 0 0 0 0 0 0 0 0 0 0 0
1 3 0 0 0 0 1 0 0 0 0 0 0 0 0 0 0 0 0 0 0 0 0 0 0 0 0 0 0 0 0 0 0 0 0 0 0 0 0 0 0 0 0 0 0
0 1 2 1 0 6 1 0 0 0 0 0 0 0 0 0 0 0 0 0 0 0 0 0 0 0 0 0 0 0 0 0 0 0 0 0 0 0 0 0 0 0 0 0 0
0 0 2 1 4 4 2 0 0 0 0 0 0 0 0 0 0 0 0 0 0 0 0 0 0 0 0 0 0 0 0 0 0 0 0 0 0 0 0 0 0 0 0 0 0
0 0 0 2 0 3 0 0 0 0 0 0 0 0 0 0 0 0 0 0 0 0 0 0 0 0 0 0 0 0 0 0 0 0 0 0 0 0 0 0 0 0 0 0 0
0 0 0 2 5 0 0 0 0 0 0 0 0 0 0 0 0 0 0 0 0 0 0 0 0 0 0 0 0 0 0 0 0 0 0 0 0 0 0 0 0 0 0 0 0
0 0 1 4 4 0 0 0 0 0 0 0 0 0 0 0 0 0 0 0 0 0 0 0 0 0 0 0 0 0 0 0 0 0 0 0 0 0 0 0 0 0 0 0 0
0 1 0 4 0 0 0 9 1 0 0 0 0 0 0 0 0 0 0 0 0 0 0 0 0 0 0 0 0 0 0 0 0 0 0 0 0 0 0 0 0 0 0 0 0
1 1 1 4 0 0 22 5 0 0 0 0 0 0 0 0 0 0 0 0 0 0 0 0 0 0 0 0 0 0 0 0 0 0 0 0 0 0 0 0 0 0 0 0 0
2 3 2 2 0 1 18 1 0 0 0 0 0 0 0 0 0 0 0 0 0 0 0 0 0 0 0 0 0 0 0 0 0 0 0 0 0 0 0 0 0 0 0 0 0
3 13 0 2 1 6 3 1 0 0 0 0 0 0 0 0 0 0 0 0 0 0 0 0 0 0 0 0 0 0 0 0 0 0 0 0 0 0 0 0 0 0 0 0 0
3 4 19 2 1 13 4 1 0 0 0 0 0 0 0 0 0 0 0 0 0 0 0 0 0 0 0 0 0 0 0 0 0 0 0 0 0 0 0 0 0 0 0 0 0
10 15 4 7 2 4 6 1 2 2 0 0 0 0 0 0 0 0 0 0 0 0 0 0 0 0 0 0 0 0 0 0 0 0 0 0 0 0 0 0 0 0 0 0 0
6 1 0 0 5 2 3 4 3 1 1 0 0 0 0 0 0 0 0 0 0 0 0 0 0 0 0 0 0 0 0 0 0 0 0 0 0 0 0 0 0 0 0 0 0
2 5 0 3 0 4 1 0 4 3 1 0 1 0 0 1 0 0 0 0 0 0 0 0 0 0 0 0 0 0 0 0 0 0 0 0 0 0 0 0 0 0 0 0 0
7 5 2 2 0 3 0 2 3 3 0 2 3 0 0 0 0 1 0 0 0 0 0 0 0 0 0 0 0 0 0 0 0 0 0 0 0 0 0 0 0 0 0 0 0
1 1 3 1 1 1 2 3 1 0 0 0 0 0 0 0 0 0 0 0 0 0 0 0 1 0 0 0 0 0 0 0 0 0 0 0 0 0 0 0 0 0 0 0 0
CIN
0 0 0 0 0 0 0 0 0 0 0 0 0 0 0 0 0 0 0 0 0 0 0 0 0 0 0 0 0 0 0 0 0 0 0 0 0 0 0 0 0 0 0 0 0
0 0 0 0 0 0 0 0 0 0 0 0 0 0 0 0 0 0 0 0 0 0 0 0 0 0 0 0 0 0 0 0 0 0 0 0 0 0 0 0 0 0 0 0 0
0 0 0 0 0 0 0 0 0 0 0 0 0 0 0 0 0 0 0 0 0 0 0 0 0 0 0 0 0 0 0 0 0 0 0 0 0 0 0 0 0 0 0 0 0
0 0 0 0 0 0 0 0 0 0 0 0 0 0 0 0 0 0 0 0 0 0 0 0 0 0 0 0 0 0 0 0 0 0 0 0 0 0 0 0 0 0 0 0 0
0 0 0 0 0 0 0 0 0 0 0 0 0 0 0 0 0 0 0 0 0 0 0 0 0 0 0 0 0 0 0 0 0 0 0 0 0 0 0 0 0 0 0 0 0
0 0 0 0 0 0 0 0 0 0 0 0 0 0 0 0 0 0 0 0 0 0 0 0 0 0 0 0 0 0 0 0 0 0 0 0 0 0 0 0 0 0 0 0 0
0 0 0 0 0 0 0 0 0 0 0 0 0 0 0 0 0 0 0 0 0 0 0 0 0 0 0 0 0 0 0 0 0 0 0 0 0 0 0 0 0 0 0 0 0
0 0 0 0 0 0 0 0 0 0 0 0 0 0 0 0 0 0 0 0 0 0 0 0 0 0 0 0 0 0 0 0 0 0 0 0 0 0 0 0 0 0 0 0 0
0 0 0 0 0 0 0 0 0 0 0 0 0 0 0 0 0 0 0 0 0 0 0 0 0 0 0 0 0 0 0 0 0 0 0 0 0 0 0 0 0 0 0 0 0
0 0 0 0 0 0 0 0 0 0 0 0 0 0 0 0 0 0 0 0 0 0 0 0 0 0 0 0 0 0 0 0 0 0 0 0 0 0 0 0 0 0 0 0 0
0 0 0 0 0 0 0 0 0 0 0 0 0 0 0 0 0 0 0 0 0 0 0 0 0 0 0 0 0 0 0 0 0 0 0 0 0 0 0 0 0 0 0 0 0
-4 -4 0 0 0 0 0 0 0 0 0 0 0 0 0 0 0 0 0 0 0 0 0 0 0 0 0 0 0 0 0 0 0 0 0 0 0 0 0 0 0 0 0 0 0
-1 -2 -4 -3 -1 0 0 0 0 0 0 0 0 0 0 0 0 0 0 0 0 0 0 0 0 0 0 0 0 0 0 0 0 0 0 0 0 0 0 0 0 0 0 0 0
0 -2 -7 -1 0 0 0 0 0 0 0 0 0 0 0 0 0 0 0 0 0 0 0 0 0 0 0 0 0 0 0 0 0 0 0 0 0 0 0 0 0 0 0 0 0
0 0 -5 -6 -1 0 0 0 0 0 0 0 0 0 0 0 0 0 0 0 0 0 0 0 0 0 0 0 0 0 0 0 0 0 0 0 0 0 0 0 0 0 0 0 0
0 0 -8 -7 -3 0 0 0 0 0 0 0 0 0 0 0 0 0 0 0 0 0 0 0 0 0 0 0 0 0 0 0 0 0 0 0 0 0 0 0 0 0 0 0 0
0 0 -5 -3 -1 0 0 0 0 0 0 0 0 0 0 0 0 0 0 0 0 0 0 0 0 0 0 0 0 0 0 0 0 0 0 0 0 0 0 0 0 0 0 0 0
0 0 0 0 0 0 0 -37 -24 0 0 0 0 0 0 0 0 0 0 0 0 0 0 0 0 0 0 0 0 0 0 0 0 0 0 0 0 0 0 0 0 0 0 0 0
0 0 0 0 0 0 -8 0 0 0 0 0 0 0 0 0 0 0 0 0 0 0 0 0 0 0 0 0 0 0 0 0 0 0 0 0 0 0 0 0 0 0 0 0 0
0 0 0 0 0 0 0 0 0 0 0 0 0 0 0 0 0 0 0 0 0 0 0 0 0 0 0 0 0 0 0 0 0 0 0 0 0 0 0 0 0 0 0 0 0
0 0 -3 0 0 -1 0 0 0 0 0 0 0 0 0 0 0 0 0 0 0 0 0 0 0 0 0 0 0 0 0 0 0 0 0 0 0 0 0 0 0 0 0 0 0
0 0 -8 0 0 0 0 0 -3 -5 0 0 0 0 0 0 0 0 0 0 0 0 0 0 0 0 0 0 0 0 0 0 0 0 0 0 0 0 0 0 0 0 0 0 0
0 -1 -5 -9 0 0 0 0 -1 -1 -1 0 0 0 0 0 0 0 0 0 0 0 0 0 0 0 0 0 0 0 0 0 0 0 0 0 0 0 0 0 0 0 0 0 0
-1 0 0 0 -5 -1 0 0 0 -1 -2 0 -1 0 0 0 0 0 0 0 0 0 0 0 0 0 0 0 0 0 0 0 0 0 0 0 0 0 0 0 0 0 0 0 0
0 0 0 0 0 -1 0 0 0 0 0 -4 0 -2 0 0 0 0 0 0 0 0 0 0 0 0 0 0 0 0 0 0 0 0 0 0 0 0 0 0 0 0 0 0 0
-1 0 -6 -1 -2 -1 -1 0 0 0 0 0 0 0 0 0 0 0 0 0 0 0 0 0 0 0 0 0 0 0 0 0 0 0 0 0 0 0 0 0 0 0 0 0 0
0 0 -1 0 0 -1 0 0 0 -1 0 0 0 0 0 0 0 0 0 0 0 0 0 0 0 0 0 0 0 0 0 0 0 0 0 0 0 0 0 0 0 0 0 0 0
Wind_Speed
15 15 15 15 15 15 15 16 16 17 18 18 19 19 20 20 20 17 17 15 15 12 13 12 14 15 15 15 15 14 13 11 9 8 10 10 9 10 12 11 13 15 15 16 21
17 17 17 17 17 17 17 17 18 18 19 20 20 21 21 22 19 16 16 16 14 11 12 12 13 14 14 15 16 15 14 12 11 10 9 9 10 10 10 11 11 13 16 18 18
20 20 19 19 19 19 19 19 19 20 21 22 22 23 23 21 18 15 16 14 11 12 12 12 12 14 15 16 17 16 15 12 11 10 10 10 11 11 10 11 13 12 13 16 17
22 22 22 21 21 21 21 21 21 21 22 23 23 24 23 18 19 14 14 12 10 11 11 11 14 16 17 16 16 15 14 12 12 9 10 10 12 12 11 13 13 14 14 16 18
25 24 23 23 23 23 22 22 23 23 24 24 24 24 20 19 18 15 14 12 10 11 11 13 15 16 16 15 15 14 13 12 11 10 12 13 11 14 11 12 13 12 13 17 19
26 25 26 25 25 24 24 24 24 25 25 25 25 23 20 23 16 15 13 12 12 12 13 13 15 15 15 16 16 15 14 15 15 14 14 13 15 12 12 8 10 12 15 19 21
28 27 26 26 26 25 25 25 26 27 27 25 23 21 22 23 17 14 13 14 13 13 13 14 12 15 13 15 15 16 20 20 16 16 16 12 16 13 6 6 9 13 17 19 21
31 29 28 27 27 26 26 26 27 27 24 22 22 22 26 19 16 15 13 14 14 14 14 12 12 13 16 13 17 19 20 21 17 15 15 10 17 11 5 6 11 14 16 18 21
33 31 29 28 27 26 26 27 27 25 23 23 23 23 28 18 18 15 14 14 12 13 14 12 14 16 14 17 21 20 21 18 21 15 16 12 18 10 9 11 13 16 17 19 20
33 32 30 29 28 26 26 26 25 25 23 22 23 26 23 21 15 12 14 10 14 11 13 15 17 18 17 16 23 20 21 20 20 19 18 17 19 11 14 14 16 17 19 19 19
33 32 30 29 27 25 25 24 28 29 26 28 24 24 21 17 14 15 12 12 13 15 18 17 19 19 17 15 21 22 22 23 21 21 23 23 25 17 18 20 20 19 18 16 15
32 32 30 28 26 24 23 27 26 24 35 30 30 29 23 18 21 16 11 15 17 19 16 19 22 20 21 18 20 23 26 27 27 24 25 29 30 26 21 23 20 16 15 11 10
31 32 30 27 25 26 28 26 22 23 35 35 30 30 27 22 27 20 13 18 20 20 17 23 25 17 19 20 21 24 25 27 31 26 27 34 41 28 26 23 19 15 11 8 6
33 32 28 23 28 27 30 24 19 21 38 39 33 32 26 22 31 21 15 18 22 23 22 27 24 23 22 25 21 31 25 29 32 32 37 25 39 28 21 18 14 10 8 7 6
32 33 27 24 28 29 27 19 16 21 46 28 27 22 20 23 21 23 18 21 25 23 22 27 23 22 26 28 22 32 26 27 30 34 35 29 33 29 20 17 12 9 8 7 6
30 30 28 31 30 27 20 13 14 29 46 27 21 21 18 21 21 19 19 19 21 24 29 31 25 25 27 25 25 20 24 26 27 29 40 29 25 29 18 16 13 9 8 6 4
30 29 29 29 35 22 16 18 30 44 27 35 27 21 21 21 20 20 19 19 22 24 31 30 31 26 23 27 25 22 22 30 31 30 35 25 23 27 17 15 12 7 7 6 5
29 29 31 30 24 19 21 30 43 44 42 26 23 23 25 21 24 22 23 27 24 24 27 30 37 24 20 22 25 20 19 24 32 30 30 23 28 28 21 17 14 7 5 6 6
39 30 32 30 24 24 31 42 48 40 34 36 27 32 31 27 25 24 27 33 26 21 26 30 35 25 22 19 16 20 22 20 25 25 30 26 28 27 20 16 15 10 6 7 7
37 34 36 30 25 27 39 48 49 43 32 31 41 35 35 31 30 29 29 29 29 24 24 29 37 27 23 19 21 20 14 21 23 28 32 29 31 28 18 14 14 11 8 7 8
36 36 30 27 31 38 46 49 48 40 37 35 40 41 39 35 33 35 37 32 23 22 21 24 29 29 22 24 22 21 22 22 22 26 32 36 32 21 15 11 9 9 8 9 10
34 38 25 28 39 44 47 44 39 41 35 39 38 40 39 34 35 37 36 34 21 20 24 25 27 32 31 27 26 25 25 23 27 28 28 32 35 18 15 13 10 10 11 10 11
36 39 30 33 44 42 42 50 45 41 42 40 41 37 36 36 39 35 34 31 22 23 22 20 28 35 35 31 27 30 26 26 27 27 30 32 32 18 18 18 15 14 13 13 12
37 38 33 37 37 43 42 44 52 45 43 41 42 39 38 40 38 36 34 31 28 30 26 20 29 31 36 33 25 32 31 30 30 34 33 36 34 24 22 20 19 19 17 15 15
35 39 36 36 42 39 39 40 46 46 47 37 44 46 42 44 44 47 41 35 32 31 29 28 37 35 38 37 33 33 32 32 36 38 36 39 39 30 25 22 22 20 19 18 17
36 36 34 40 38 40 34 41 41 42 40 44 49 43 45 46 44 44 42 39 40 33 35 34 42 37 43 39 39 43 39 36 38 38 40 39 40 27 23 22 24 22 21 20 19
33 37 34 39 44 46 42 39 36 35 33 36 38 41 42 46 42 40 38 39 38 38 37 37 39 39 47 41 42 49 47 41 40 38 39 42 39 28 25 25 26 26 22 21 22
Wind_Direction
272 276 280 283 285 288 289 291 292 293 293 290 287 283 280 277 285 320 305 318 312 335 327 332 329 334 344 350 355 7 5 17 30 45 38 42 52 22 10 39 16 1 1 349 284
274 277 281 283 286 287 290 293 294 296 295 295 294 294 290 291 313 323 321 313 318 339 332 335 334 338 342 348 348 352 354 5 12 22 35 27 15 8 24 11 19 14 5 342 331
274 278 280 282 285 287 289 293 295 297 297 297 297 295 293 306 323 334 321 326 341 333 335 338 345 339 337 340 337 341 341 357 2 10 13 1 351 356 1 358 353 4 4 349 343
273 276 279 282 283 285 289 292 294 296 297 297 298 297 298 319 306 338 332 341 354 346 344 342 332 327 328 331 338 339 346 355 358 3 359 350 347 346 347 340 345 350 350 342 334
272 275 278 279 283 285 288 291 292 294 297 298 299 301 312 310 313 328 332 338 343 338 337 331 326 327 325 332 337 338 345 349 350 349 338 334 339 334 340 340 344 350 344 334 331
272 275 277 280 282 285 287 290 292 293 295 298 301 304 308 298 321 325 331 329 325 326 326 327 326 329 328 327 327 335 335 331 327 328 327 326 325 335 338 3 352 345 333 326 324
272 274 278 280 282 284 287 289 291 292 294 299 304 307 302 299 316 323 325 320 322 320 319 322 330 322 331 325 328 327 318 318 320 320 319 329 318 318 352 10 349 335 330 328 329
270 273 276 279 281 284 286 288 291 293 298 302 304 304 294 308 313 311 315 317 321 320 321 327 331 328 320 330 323 317 318 313 322 324 321 323 315 328 349 344 334 335 333 331 329
268 271 274 277 280 283 285 287 290 294 298 300 300 299 293 310 301 304 307 307 316 319 323 326 321 315 318 310 308 310 308 311 312 315 315 312 314 325 326 320 322 324 324 325 326
267 269 272 275 278 281 284 287 291 293 294 298 297 294 292 297 307 309 307 308 307 310 312 308 308 302 304 299 300 306 304 306 305 310 302 306 305 315 314 314 314 319 319 321 324
266 268 270 273 276 279 283 285 282 283 281 279 288 288 296 301 307 299 303 302 307 299 292 297 290 288 289 289 300 304 302 301 305 304 300 298 297 302 302 305 307 310 313 317 321
264 266 268 271 273 275 278 275 280 289 282 280 279 280 287 288 288 289 292 287 288 285 291 293 284 290 297 296 294 297 296 295 296 301 299 297 294 296 296 299 301 302 305 312 324
262 264 265 266 268 269 269 274 289 293 282 279 276 275 276 274 279 272 265 283 284 280 275 282 294 297 289 292 290 291 289 292 292 300 299 297 291 293 293 293 295 296 296 302 318
260 260 260 260 265 266 267 271 285 296 280 277 274 276 269 272 275 277 263 281 283 278 282 286 288 290 288 287 288 287 290 290 290 292 291 300 295 303 301 293 286 281 278 286 301
257 255 252 242 264 258 270 262 267 288 273 283 272 283 274 261 275 273 271 275 275 277 280 287 289 284 283 287 286 289 295 291 291 288 290 291 295 300 300 289 277 271 273 277 289
251 249 246 245 258 262 263 246 255 265 266 275 276 271 267 269 276 282 268 280 281 279 281 282 295 292 289 291 289 294 295 295 294 290 284 283 283 295 295 288 288 270 260 254 255
247 240 237 244 249 251 241 233 252 253 271 268 270 269 266 268 271 272 267 261 266 277 275 283 281 288 291 288 291 284 285 288 286 283 286 296 282 283 297 302 304 247 232 227 235
244 234 233 242 240 228 229 237 250 253 249 274 279 268 266 268 273 270 269 266 264 277 283 279 284 281 281 270 284 270 261 279 285 285 290 291 287 295 293 294 305 284 240 232 231
254 243 239 236 223 220 227 236 247 251 255 253 268 268 267 270 275 267 268 271 268 259 273 282 285 292 292 286 265 277 266 276 288 293 291 290 294 297 299 288 290 292 265 240 227
263 253 246 227 215 221 230 240 250 250 257 252 253 261 263 262 263 263 269 277 272 261 272 285 284 291 288 283 276 274 272 273 274 284 287 294 294 292 291 278 280 280 260 247 241
263 261 248 222 222 229 236 244 249 255 252 251 256 259 265 263 260 266 271 277 268 274 255 277 282 287 285 269 260 265 265 271 279 279 289 292 296 303 295 275 266 269 265 256 247
261 259 253 214 231 236 237 236 253 251 252 255 262 259 261 262 265 265 264 266 263 265 266 268 281 277 277 285 275 260 264 251 271 280 284 289 291 303 300 301 285 285 286 271 258
260 258 262 223 241 240 246 242 250 251 248 253 257 259 260 262 267 264 265 269 261 256 264 263 276 278 281 279 276 265 257 259 266 285 275 281 292 296 294 294 294 295 290 281 266
254 255 254 242 247 242 243 249 243 250 254 252 258 258 262 262 262 269 266 269 263 266 265 251 269 266 270 283 279 265 257 254 255 268 271 270 283 285 283 282 287 291 290 280 268
250 254 251 249 244 242 240 250 248 249 248 255 255 252 252 262 263 261 266 269 271 269 266 255 268 263 270 275 277 277 264 257 251 250 269 277 276 276 270 273 282 285 286 281 269
249 250 253 250 246 248 243 250 250 251 251 251 253 256 258 255 256 265 264 264 266 268 264 265 270 268 272 270 271 273 273 259 256 258 264 277 280 284 274 279 283 281 282 275 267
260 255 253 252 248 247 250 251 250 253 259 255 257 259 261 260 265 269 272 270 270 265 258 262 265 269 272 268 273 273 254 264 266 265 264 268 275 281 281 278 278 281 277 273 272